Terminal Aerodrome Forecast
Issued by NWS

Home | Current Version | Previous Version | Text Only | Print | Product List | Glossary On
Versions: 1 2 3 4 5 6 7 8 9 10 11 12 13 14 15 16 17 18 19 20 21 22 23 24 25 26 27
000
FTUS41 KOKX 302331
TAFSWF
TAF
KSWF 302331Z 3100/0106 VRB03KT 2SM RA BKN025 OVC030
     FM310500 VRB03KT 5SM BR OVC015
     FM310700 VRB03KT 3SM SHRA BR OVC008
     FM312000 12006KT 5SM SHRA SCT008 OVC025
      AMD NOT SKED=

USA.gov is the U.S. government's official web portal to all federal, state and local government web resources and services.